Norfolk, NE

10:00 AM CDT on April 25, 2017 (GMT -0500)
Stefan Memorial

Weather History for KOFK - September, 2013

Change the Weather History Date:

Saturday, September 14, 2013

  Actual Average Record
Temperature  
Mean Temperature 66 °F 65 °F  
Max Temperature 75 °F 77 °F 102 °F (1895)
Min Temperature 57 °F 52 °F 35 °F (1989)
Degree Days  
Heating Degree Days 0 4  
Month to date heating degree days 5 31  
Since 1 July heating degree days 21 47  
Cooling Degree Days 1 3  
Month to date cooling degree days 119 63  
Year to date cooling degree days 943 879  
Growing Degree Days 15 (Base 50)    
Moisture  
Dew Point 51 °F    
Average Humidity 62    
Maximum Humidity 77    
Minimum Humidity 46    
Precipitation  
Precipitation T in 0.09 in 1.98 in (1941)
Month to date precipitation 0.12 1.26  
Year to date precipitation 18.53 21.79  
Snow  
Snow 0.00 in 0.00 in - ()
Month to date snowfall 0.0 0.0  
Since 1 July snowfall 0.0 0.0  
Snow Depth 0.00 in    
Sea Level Pressure  
Sea Level Pressure 29.94 in    
Wind  
Wind Speed 11 mph (South)    
Max Wind Speed 21 mph    
Max Gust Speed 29 mph    
Visibility 10 miles    
Events      
T = Trace of Precipitation, MM = Missing Value Source: NWS Daily Summary

Daily Weather History Graph

Daily Weather History Graph

Search for Another Location

Airport or City:

Trip Planner

Search our weather history database for the weather conditions in past years. The results will help you decide how hot, cold, wet, or windy it might be!

Date:

Astronomy

Sep. 14, 2013 Rise Set
Actual Time 7:09 AM CDT 7:40 PM CDT
Civil Twilight 6:41 AM CDT 8:08 PM CDT
Nautical Twilight 6:07 AM CDT 8:41 PM CDT
Astronomical Twilight 5:33 AM CDT 9:15 PM CDT
Moon 4:26 PM CDT (9/14) 1:38 AM CDT (9/14)
Length of Visible Light 13h 27m
Length of Day
12h 31m
Waxing Gibbous, 72% of the Moon is Illuminated
Sep 14
Waxing Gibbous
Sep 19
Full
Sep 26
Last Quarter
Oct 4
New
Oct 11
First Quarter

Hourly Weather History & Observations

Time (CDT) Temp. Dew Point Humidity Pressure Visibility Wind Dir Wind Speed Gust Speed Precip Events Conditions
12:56 AM 57.9 °F 48.9 °F 72% 30.05 in 10.0 mi SSE 5.8 mph - N/A   Clear
1:56 AM 57.9 °F 50.0 °F 75% 30.04 in 10.0 mi SSE 9.2 mph - N/A   Mostly Cloudy
2:56 AM 59.0 °F 50.0 °F 72% 30.04 in 10.0 mi South 6.9 mph - N/A   Overcast
3:56 AM 60.1 °F 48.9 °F 67% 30.03 in 10.0 mi South 8.1 mph - N/A   Overcast
4:56 AM 61.0 °F 48.9 °F 64% 30.02 in 10.0 mi South 8.1 mph - 0.00 in   Overcast
5:56 AM 59.0 °F 50.0 °F 72% 30.01 in 10.0 mi SSE 8.1 mph - N/A   Mostly Cloudy
6:56 AM 57.0 °F 50.0 °F 77% 30.01 in 10.0 mi South 8.1 mph - N/A   Partly Cloudy
7:56 AM 60.1 °F 48.9 °F 67% 30.02 in 10.0 mi South 12.7 mph - N/A   Overcast
8:56 AM 62.1 °F 48.0 °F 60% 30.02 in 10.0 mi South 10.4 mph - N/A   Overcast
9:56 AM 62.1 °F 48.9 °F 62% 30.01 in 10.0 mi SSE 10.4 mph 19.6 mph N/A   Overcast
10:56 AM 64.0 °F 50.0 °F 60% 30.00 in 10.0 mi South 13.8 mph - N/A   Overcast
11:56 AM 68.0 °F 50.0 °F 52% 29.97 in 10.0 mi South 16.1 mph - N/A   Overcast
12:56 PM 70.0 °F 50.0 °F 49% 29.95 in 10.0 mi South 13.8 mph 23.0 mph N/A   Mostly Cloudy
1:56 PM 72.0 °F 51.1 °F 48% 29.93 in 10.0 mi South 16.1 mph 23.0 mph 0.00 in   Mostly Cloudy
2:56 PM 73.0 °F 52.0 °F 48% 29.90 in 10.0 mi South 15.0 mph 25.3 mph N/A   Overcast
3:56 PM 73.0 °F 52.0 °F 48% 29.88 in 10.0 mi South 16.1 mph 23.0 mph N/A   Mostly Cloudy
4:56 PM 72.0 °F 52.0 °F 49% 29.86 in 10.0 mi South 15.0 mph - N/A   Scattered Clouds
5:56 PM 75.0 °F 54.0 °F 48% 29.83 in 10.0 mi South 17.3 mph 21.9 mph N/A   Clear
6:56 PM 73.0 °F 54.0 °F 51% 29.84 in 10.0 mi South 9.2 mph - N/A   Clear
7:56 PM 70.0 °F 55.0 °F 59% 29.84 in 10.0 mi South 4.6 mph - N/A   Overcast
8:56 PM 70.0 °F 55.0 °F 59% 29.84 in 10.0 mi South 6.9 mph - N/A   Overcast
9:56 PM 70.0 °F 55.0 °F 59% 29.84 in 10.0 mi South 4.6 mph - N/A   Overcast
10:56 PM 66.9 °F 55.9 °F 68% 29.83 in 10.0 mi South 8.1 mph - N/A   Clear
11:56 PM 66.9 °F 57.0 °F 70% 29.84 in 10.0 mi South 9.2 mph - N/A   Clear